Regional Weather Roundup
Issued by NWS

Home | Current Version | Previous Version | Text Only | Print | Product List | Glossary On
Versions: 1 2 3 4 5 6 7 8 9 10 11 12 13 14 15 16 17 18 19 20 21 22 23 24 25 26 27 28 29 30 31 32 33 34 35 36 37 38 39 40 41 42 43 44 45 46 47 48 49 50
689
ASUS45 KSLC 301710
RWRUT

UTAH REGIONAL WEATHER ROUNDUP
NATIONAL WEATHER SERVICE SALT LAKE CITY UT
1100 AM MDT TUE AUG 30 2016

UTZ001>011-023>025-301800-

NORTHERN UTAH

CITY           SKY/WX    TMP DP  RH WIND       PRES   REMARKS
BRIGHAM CITY     N/A     78  33  19 CALM      30.17F
HILL AFB       SUNNY     79  35  20 E14       30.18F
LOGAN          SUNNY     72  37  28 VRB3      30.19S
OGDEN          SUNNY     86  33  15 VRB5      30.16S
PROVO AIRPORT  MOSUNNY  N/A N/A N/A CALM      30.19F
SALT LAKE CITY MOSUNNY   87  36  16 SE9       30.14S
VERNAL         SUNNY     74  38  27 VRB5      30.30S
WENDOVER       SUNNY     75  34  22 SE7       30.16R
HEBER CITY     SUNNY     70  41  35 CALM      30.27S
WEST JORDAN    SUNNY     82  41  23 SE13      30.18S

$$

UTZ012>022-026-027-301800-

SOUTHERN/CENTRAL UTAH

CITY           SKY/WX    TMP DP  RH WIND       PRES   REMARKS
BLANDING       SUNNY     72  44  37 S8        30.41S
BRYCE CANYON   SUNNY     71  37  28 S6        30.42S
CEDAR CITY     SUNNY     80  38  22 CALM      30.25S
DELTA          SUNNY     75  27  16 SW3       30.20S
MILFORD        NOT AVBL
MOAB/CYNLANDS  SUNNY     80  43  26 VRB3      30.23S
PRICE          SUNNY     76  38  25 S6        30.31S
ST GEORGE      SUNNY     81  46  30 CALM      30.10F

$$

REGIONAL REPORTS     COLORADO/ARIZONA

CITY           SKY/WX    TMP DP  RH WIND       PRES   REMARKS
CRAIG, CO      SUNNY     75  37  25 E6        30.35F
GRAND JUNCTION SUNNY     73  43  33 SE8       30.28F
RIFLE          SUNNY     68  46  45 VRB3      30.33F
MONTROSE       SUNNY     71  44  37 VRB3      30.35F
CORTEZ         SUNNY     73  47  39 W5        30.34S
PAGE, AZ       SUNNY     80  41  24 VRB3      30.20S
GRAND CANYON   SUNNY     77  41  27 SW3       30.35S
KINGMAN        SUNNY     89  45  21 E17       30.09R
FLAGSTAFF      SUNNY     72  45  37 SW6       30.38R

$$

REGIONAL REPORTS    NEVADA/IDAHO/WYOMING

CITY           SKY/WX    TMP DP  RH WIND       PRES   REMARKS
LAS VEGAS, NV  MOSUNNY   93  32  11 E5        29.97R
ELY            SUNNY     82  26  13 S10       30.27F
ELKO           MOSUNNY   76  27  16 NE6       30.17S
POCATELLO, ID  SUNNY     75  36  24 N5        30.17F
BURLEY         MOSUNNY   75  41  29 NE12      30.09F
EVANSTON, WY   SUNNY     72  29  20 E6        30.40S
ROCK SPRINGS   SUNNY     72  34  24 VRB5      30.40S

$$




USA.gov is the U.S. government's official web portal to all federal, state and local government web resources and services.